Flag for Germany Weather past 2 weeks in Sondershausen, Thuringia, Germany

Now
59 °F

Drizzle. Low clouds.


Feels Like: 59 °F
Forecast: 53 / 84 °F
Wind: 3 mph from Northeast

Location: Erfurt-Bindersleben

Current Time: Jul 25, 2014 at 2:07:44 AM

Latest Report: Jul 25, 2014 at 1:00 AM


Visibility: 1 mi

Pressure: 29.98 "Hg

Humidity: 97%

Dew point: 58 °F

Location of SondershausenLocation

Historic Weather in Sondershausen — Graph

°F

Sondershausen temperature yesterday

Maximum temperature yesterday: 74 °F (at 2:00 PM)
Minimum temperature yesterday: 57 °F (at 6:00 AM)
Average temperature yesterday: 65 °F

Past Weeks' High & Low Weather Summary

 TemperatureHumidityPressure
High88 °F (Jul 19, 5:00 PM)97% (Jul 25, 1:00 AM)30.20 "Hg (Jul 25, 1:00 AM)
Low52 °F (Jul 13, 5:00 AM)27% (Jul 19, 7:00 PM)29.73 "Hg (Jul 10, 4:00 AM)
Average68 °F69%29.95 "Hg
* Reported Jul 10 1:00 AM — Jul 25 1:00 AM, Sondershausen, Weather by CustomWeather, © 2014

Note: Actual official high and low records may vary slightly from our data, if they occured in-between our weather recording intervals... More about our weather records

Advertising

Sondershausen weather history for previous 24 hours

 ConditionsComfort  
Time TempWeatherWind HumidityBarometerVisibility
1:00 AM
Jul 25
59 °FDrizzle. Low clouds.3 mph97%29.98 "Hg1 mi
12:00 AM60 °FDrizzle. Low clouds.3 mph91%29.98 "Hg11 mi
11:00 PM
Jul 24
62 °FOvercast.6 mph85%29.99 "Hg25 mi
10:00 PM64 °FOvercast.3 mph72%29.98 "Hg31 mi
9:00 PM65 °FOvercast.3 mph73%29.96 "Hg31 mi
8:00 PM67 °FPartly sunny.5 mph65%29.95 "Hg31 mi
7:00 PM68 °FPartly sunny.3 mph65%29.95 "Hg37 mi
6:00 PM69 °FPartly sunny.5 mph64%29.97 "Hg37 mi
5:00 PM69 °FPartly sunny.6 mph62%29.98 "Hg37 mi
4:00 PM69 °FSprinkles. Partly sunny.7 mph59%29.99 "Hg37 mi
3:00 PM71 °FPartly sunny.8 mph58%29.98 "Hg31 mi
2:00 PM74 °FPartly sunny.6 mph50%29.96 "Hg31 mi
1:00 PM73 °FScattered clouds.5 mph56%29.96 "Hg31 mi
12:00 PM71 °FScattered clouds.6 mph57%29.96 "Hg31 mi
11:00 AM69 °FScattered clouds.6 mph60%29.97 "Hg31 mi
10:00 AM66 °FScattered clouds.3 mph70%29.98 "Hg37 mi
9:00 AM64 °FScattered clouds.3 mph76%30.00 "Hg31 mi
8:00 AM61 °FScattered clouds.2 mph79%30.00 "Hg31 mi
7:00 AM57 °FScattered clouds.2 mph90%30.01 "Hg37 mi
6:00 AM57 °FScattered clouds.2 mph88%30.01 "Hg37 mi
5:00 AM57 °FPassing clouds.3 mph87%30.01 "Hg37 mi
4:00 AM58 °FPassing clouds.3 mph84%29.99 "Hg37 mi
3:00 AM61 °FPassing clouds.2 mph76%30.00 "Hg37 mi
2:00 AM62 °FPassing clouds.3 mph75%30.01 "Hg37 mi
Weather by CustomWeather, © 2014

See weather overviewHow to use our weather pages